DateTimeUTC,F1_A11,F1_S11,BsB_S11,BsG_S11,BsR_S11,BbsB_S11,BbsG_S11,BbsR_S11,BaB_A11,BaG_A11,BaR_A11,Tu_S11,T_S11,Uu_S11,U_S11,P_S11,T1_A11
2021-08-07T00:00:00Z,00000200,20000000,,,,,,,-000.34,-000.37,0000.25,18.5,25.5,04.6,03.0,0666.3,31.0
2021-08-07T00:01:00Z,00000200,20000000,,,,,,,-000.12,0000.21,-000.50,18.5,25.5,04.6,03.0,0666.3,31.0
2021-08-07T00:02:00Z,00000200,20000000,,,,,,,0000.51,-000.02,0000.45,18.5,25.5,04.6,03.0,0666.3,31.0
2021-08-07T00:03:00Z,00000200,60000000,,,,,,,0001.30,0001.85,0000.85,18.5,25.5,04.6,03.0,0666.3,31.0
2021-08-07T00:04:00Z,00000200,40000000,0007.52,0004.69,0002.92,0000.59,0000.37,0000.47,0001.63,0001.48,0001.45,18.5,25.2,05.0,03.3,0667.2,31.0
2021-08-07T00:05:00Z,00000200,00000000,0006.63,0004.92,0002.97,0001.22,0000.60,0000.26,0001.34,0000.90,0000.97,18.6,25.2,04.8,03.2,0667.3,31.0
2021-08-07T00:06:00Z,00000200,00000000,0006.98,0004.90,0002.50,0000.81,0000.83,0000.65,0000.56,0000.51,-000.11,18.5,25.1,04.8,03.2,0667.3,31.0
2021-08-07T00:07:00Z,00000200,00000000,0007.31,0004.83,0002.84,0000.50,0000.45,0000.52,0002.07,0002.22,0001.83,18.5,25.1,04.6,03.1,0667.3,31.0
2021-08-07T00:08:00Z,00000200,00000000,0008.08,0004.88,0003.23,0000.43,0000.76,0000.47,0001.77,0001.31,0001.07,18.5,25.1,04.7,03.2,0667.3,31.0
2021-08-07T00:09:00Z,00000200,00000000,0007.84,0005.30,0003.10,0001.06,0000.62,0000.49,0001.19,0000.64,0000.77,18.6,25.1,04.6,03.1,0667.3,31.0
2021-08-07T00:10:00Z,00000200,00000000,0007.27,0005.20,0003.25,0000.62,0000.88,0000.63,0001.73,0001.87,0001.31,18.6,25.1,04.7,03.2,0667.3,31.0
2021-08-07T00:11:00Z,00000200,00000000,0006.17,0004.03,0002.30,0001.23,0000.69,0000.45,0002.39,0002.26,0001.83,18.7,25.2,04.8,03.2,0667.3,31.0
2021-08-07T00:12:00Z,00000200,00000000,0007.15,0005.24,0002.55,0001.25,0000.67,0000.51,0001.59,0001.32,0001.00,18.7,25.2,04.9,03.3,0667.3,31.0
2021-08-07T00:13:00Z,00000200,00000000,0006.91,0003.78,0002.58,0000.88,0000.67,0000.51,0001.35,0001.40,0001.15,18.7,25.2,05.1,03.4,0667.3,31.0
2021-08-07T00:14:00Z,00000200,00000000,0006.91,0004.56,0002.31,0000.92,0000.63,0000.75,0001.39,0001.11,0000.59,18.7,25.1,05.0,03.4,0667.3,31.0
2021-08-07T00:15:00Z,00000200,00000000,0006.86,0004.74,0002.50,0000.87,0000.49,0000.44,0000.99,0000.90,0001.24,18.6,25.1,05.0,03.4,0667.3,31.0
2021-08-07T00:16:00Z,00000200,00000000,0005.88,0003.96,0002.26,0000.63,0000.64,0000.48,0001.09,0001.36,0000.63,18.6,25.1,05.1,03.4,0667.3,31.0
2021-08-07T00:17:00Z,00000200,00000000,0005.31,0003.59,0002.29,0000.71,0000.54,0000.82,0001.61,0001.45,0001.11,18.6,25.1,05.1,03.4,0667.3,31.0
2021-08-07T00:18:00Z,00000200,00000000,0007.24,0003.96,0002.63,0000.47,0000.83,0000.36,0001.16,0000.87,0000.61,18.6,25.1,05.1,03.4,0667.3,31.0
2021-08-07T00:19:00Z,00000200,00000000,0005.51,0003.56,0002.38,0000.96,0000.52,0000.40,0001.84,0001.28,0001.29,18.5,25.1,04.9,03.3,0667.3,31.0
2021-08-07T00:20:00Z,00000200,00000000,0005.17,0003.65,0002.31,0000.62,0000.82,0000.54,0000.73,0001.29,0000.70,18.5,25.1,05.1,03.4,0667.3,31.0
2021-08-07T00:21:00Z,00000200,00000000,0007.02,0004.94,0002.57,0000.88,0000.43,0000.70,0001.45,0001.22,0000.80,18.5,25.0,05.0,03.4,0667.3,31.0
2021-08-07T00:22:00Z,00000200,00000000,0005.02,0003.44,0002.02,0001.13,0000.79,0000.86,0001.82,0000.96,0000.62,18.5,25.0,05.0,03.3,0667.3,31.0
2021-08-07T00:23:00Z,00000200,00000000,0007.77,0004.47,0002.71,0001.29,0000.71,0000.31,0000.53,0001.51,0001.17,18.5,25.0,05.0,03.4,0667.3,31.0
2021-08-07T00:24:00Z,00000200,00000000,0005.86,0004.21,0002.44,0000.88,0000.58,0000.77,0001.85,0001.45,0001.25,18.5,25.0,05.0,03.4,0667.3,31.0
2021-08-07T00:25:00Z,00000200,00000000,0006.88,0004.26,0002.72,0000.60,0000.64,0000.88,0001.15,0000.99,0000.87,18.7,25.1,04.9,03.3,0667.3,31.0
2021-08-07T00:26:00Z,00000200,00000000,0004.01,0002.29,0001.50,0000.66,0000.46,0000.33,0000.71,0000.40,0000.38,18.8,25.1,04.9,03.3,0667.3,31.0
2021-08-07T00:27:00Z,00000200,00000000,0005.36,0003.17,0001.84,0000.83,0000.46,0000.44,0001.46,0001.52,0000.87,18.8,25.2,04.8,03.3,0667.3,31.0
2021-08-07T00:28:00Z,00000200,00000000,0004.11,0001.97,0000.96,0000.24,0000.54,0000.27,0000.55,0000.36,0000.50,18.9,25.2,04.7,03.2,0667.3,31.0
2021-08-07T00:29:00Z,00000200,00000000,0004.55,0002.37,0001.31,0000.94,0000.34,0000.35,0000.52,0000.61,0000.11,18.9,25.2,04.8,03.2,0667.3,31.0
2021-08-07T00:30:00Z,00000200,00000000,0004.81,0002.39,0001.45,0000.48,0000.30,0000.38,0000.81,0000.84,0000.77,18.8,25.2,04.7,03.2,0667.3,31.0
2021-08-07T00:31:00Z,00000200,00000000,0003.55,0001.81,0001.03,0000.44,0000.61,0000.45,0000.94,0000.10,0000.06,18.8,25.2,04.7,03.2,0667.3,31.0
2021-08-07T00:32:00Z,00000200,00000000,0002.50,0001.09,0000.49,0000.85,0000.34,0000.38,-000.40,0000.30,0000.36,18.8,25.2,04.6,03.1,0667.3,31.0
2021-08-07T00:33:00Z,00000200,00000000,0002.26,0001.80,0000.42,0000.60,0000.10,0000.55,0000.95,0000.56,0000.37,18.7,25.1,04.5,03.1,0667.3,31.0
2021-08-07T00:34:00Z,00000200,00000000,0002.75,0001.14,0000.50,0000.43,0000.29,0000.53,0000.25,0000.56,0000.12,18.7,25.1,04.5,03.0,0667.3,31.0
2021-08-07T00:35:00Z,00000200,00000000,0001.48,0000.83,0000.44,0000.41,0000.48,0000.07,0000.21,-000.09,0000.21,18.7,25.1,04.5,03.0,0667.3,31.0
2021-08-07T00:36:00Z,00000200,00000000,0002.42,0001.14,0000.52,0000.45,0000.27,0000.13,0000.56,0000.21,-000.24,18.6,25.1,04.3,02.9,0667.3,31.0
2021-08-07T00:37:00Z,00000200,00000000,0002.49,0001.17,0000.50,0000.82,0000.40,0000.52,0000.15,0000.50,0000.28,18.6,25.1,04.2,02.8,0667.3,31.0
2021-08-07T00:38:00Z,00000200,00000000,0001.70,0001.09,0000.47,0000.83,0000.06,0000.22,0000.72,0000.42,0000.35,18.6,25.0,04.1,02.8,0667.3,31.0
2021-08-07T00:39:00Z,00000200,00000000,0002.08,0000.88,0000.34,0000.41,0000.18,0000.02,0000.37,0000.59,0000.34,18.7,25.1,04.2,02.8,0667.3,31.0
2021-08-07T00:40:00Z,00000200,00000000,0001.37,0000.93,0000.75,-000.13,0000.41,0000.60,0000.20,-000.17,-000.25,18.7,25.1,04.0,02.7,0667.3,31.0
2021-08-07T00:41:00Z,00000200,00000000,0003.09,0001.35,0000.76,0000.67,0000.15,0000.45,0000.31,0000.72,0000.64,18.8,25.2,04.0,02.7,0667.3,31.0
2021-08-07T00:42:00Z,00000200,00000000,0001.06,0000.86,0000.58,-000.34,0000.17,0000.57,0000.47,0000.09,-000.09,18.8,25.2,04.0,02.7,0667.3,31.0
2021-08-07T00:43:00Z,00000200,00000000,0002.06,0000.66,0000.25,0000.22,0000.36,0000.25,-000.03,-000.36,-000.30,18.8,25.2,03.7,02.5,0667.3,31.0
2021-08-07T00:44:00Z,00000200,00000000,0002.37,0001.17,0000.48,0000.91,0000.31,0000.04,0000.01,0000.32,0000.11,18.8,25.1,03.7,02.5,0667.3,31.0
2021-08-07T00:45:00Z,00000200,00000000,0002.74,0001.13,0000.31,0000.57,0000.42,0000.41,0000.59,0000.58,0000.52,18.7,25.1,03.6,02.5,0667.3,31.0
2021-08-07T00:46:00Z,00000200,00000000,0002.16,0000.63,0000.10,0000.48,0000.29,0000.12,-000.02,-000.16,-000.23,18.7,25.1,03.7,02.5,0667.3,31.0
2021-08-07T00:47:00Z,00000200,00000000,0001.27,0000.63,-000.08,0000.48,0000.03,0000.70,0000.49,0000.09,0000.09,18.7,25.1,03.6,02.4,0667.3,31.0
2021-08-07T00:48:00Z,00000200,00000000,0001.76,0000.61,0000.45,0000.10,0000.33,0000.46,0000.03,0000.18,0000.23,18.6,25.0,03.7,02.5,0667.3,31.0
2021-08-07T00:49:00Z,00000200,00000000,0002.10,0000.84,0000.69,0000.48,0000.57,-000.10,0000.11,0000.46,-000.05,18.6,25.1,03.7,02.5,0667.3,31.0
2021-08-07T00:50:00Z,00000200,00000000,0002.12,0000.70,0000.04,0000.32,0000.31,-000.11,0000.38,0000.05,0000.33,18.6,25.0,03.6,02.4,0667.3,31.0
2021-08-07T00:51:00Z,00000200,00000000,0002.32,0000.90,0000.49,-000.39,0000.01,0000.15,0000.05,0000.05,-000.03,18.6,25.0,03.5,02.4,0667.3,31.0
2021-08-07T00:52:00Z,00000200,00000000,0001.84,0000.20,0000.26,0000.53,0000.20,-000.32,0000.60,0000.51,0000.33,18.5,25.0,03.5,02.4,0667.3,31.0
2021-08-07T00:53:00Z,00000200,00000000,0001.58,0000.54,0000.09,0000.27,0000.20,-000.02,0000.10,0000.01,-000.14,18.5,25.0,03.5,02.3,0667.3,31.0
2021-08-07T00:54:00Z,00000200,00000000,0002.32,0000.86,0000.47,0000.01,0000.17,0000.51,0000.76,0000.69,0000.57,18.5,25.0,03.4,02.3,0667.3,31.0
2021-08-07T00:55:00Z,00000200,00000000,0001.59,0000.82,0000.35,0000.27,0000.52,0000.01,-000.38,-000.22,-000.32,18.6,25.0,03.4,02.3,0667.3,31.0
2021-08-07T00:56:00Z,00000200,00000000,0002.05,0000.90,0000.52,0000.52,0000.04,0000.52,0000.43,0000.08,0000.17,18.6,25.0,03.3,02.2,0667.3,31.0
2021-08-07T00:57:00Z,00000200,40000000,,,,,,,0000.84,0000.63,0000.83,18.7,25.1,03.1,02.1,0667.3,31.0
2021-08-07T00:58:00Z,00000200,60000000,,,,,,,-000.71,0000.03,-000.61,18.3,25.2,03.4,02.2,0666.3,31.0
2021-08-07T00:59:00Z,00000200,20000000,,,,,,,-000.79,-001.56,-000.85,18.3,25.3,03.3,02.2,0666.3,31.0
